Tracking 17633 objects as of 24-May-2016
HD Live streaming from Space Station
objects crossing your sky now

COSMOS 1478

Track COSMOS 1478 now!
10-day predictions
COSMOS 1478 is classified as:


NORAD ID: 14176
Int'l Code: 1983-069F
Perigee: 1,469.2 km
Apogee: 1,489.0 km
Inclination: 74.0 °
Period: 115.4 minutes
Semi major axis: 7850 km
RCS: 0.7085 m2 (medium)
Launch date: July 6, 1983
Source: Commonwealth of Independent States (former USSR) (CIS)
Launch site: PLESETSK MISSILE AND SPACE COMPLEX (PKMTR)
Your satellite tracking list
Your tracking list is empty





NASA's NSSDC Master Catalog

Two Line Element Set (TLE):
1 14176U 83069F   16143.90619140  .00000004  00000-0  13466-3 0  9997
2 14176  74.0262 231.5407 0012602 274.9549 209.7131 12.48212633498472
Source of the keplerian elements: AFSPC

N2YO: 497